Location: *
(46.1866°S, 178.5290°W)
Time: 10:50:35
(UTC+00:00)

ATLAS CENTAUR R/B - Pass Details

Date: 19 May 2021
Orbit: 472 x 671 km, 64.6° (Epoch: 08 June)

Event Time Altitude Azimuth Distance (km) Brightness Sun altitude
Rises 07:17:42 0° 229° (SW) 2,813 5.6 -29.1°
Reaches altitude 10° 07:20:29 10° 246° (WSW) 1,863 4.8 -29.6°
Maximum altitude 07:23:28 19° 292° (WNW) 1,322 3.9 -30.1°
Enters shadow 07:24:46 17° 317° (NW) 1,416 3.8 -30.3°
